Location: Le Gr�zie
(43.6000°N, 13.5000°E)
Time: 11:41:30
(UTC+00:00)

CZ-4C R/B - Pass Details

Date: 09 April 2020
Orbit: 637 x 1365 km, 63.4° (Epoch: 05 June)

Event Time Altitude Azimuth Distance (km) Brightness Sun altitude
Rises 22:39:55 0° 317° (NW) 3,940 6.3 -38.0°
Reaches altitude 10° 22:42:39 10° 309° (NW) 3,077 5.5 -38.1°
Enters shadow 22:46:53 31° 282° (WNW) 2,042 4.2 -38.2°
